Find Local Weather

World > North America > United States > Washington

Silverdale, Washington Regional Weather

Lat: 47.64N, Lon: 122.69W
Wx Zone: WAZ558
Feedback
Expires:201810230200;;590744
ASUS46 KSEW 230110
RWRWA 

WASHINGTON REGIONAL WEATHER ROUNDUP
NATIONAL WEATHER SERVICE SEATTLE WA
600 PM PDT MON OCT 22 2018

NOTE:"FAIR" INDICATES FEW OR NO CLOUDS BELOW 12,000 FEET WITH NO 
SIGNIFICANT WEATHER AND/OR OBSTRUCTIONS TO VISIBILITY.


WAZ507-509-555>559-230200-
SEATTLE, TACOMA, EVERETT, AND VICINITY
  
CITY           SKY/WX    TMP DP  RH WIND       PRES   REMARKS
EVERETT        CLEAR     53  47  79 NW3       29.89F                  
BOEING FIELD   PTCLDY    49  47  93 NW6       29.89F FOG              
RENTON         CLEAR     53  49  86 CALM      29.88F                  
SEATAC AIRPORT FOG       49  47  93 CALM      29.89S VSB 3/4          
JBLM-MCCHORD   CLEAR     51  51 100 N3        29.89S                  
PUYALLUP       FAIR      54  50  87 CALM      29.89S                  
BREMERTON      CLEAR     54  48  80 CALM      29.89S                  
JBLM-FT LEWIS  FOG       49  49 100 W5        29.88S VSB 1/4          
TACOMA NARROWS FOG       48  47  96 CALM      29.89S VSB 1/4          
$$
 

SKY/WX - Weather  TMP - Temperature  DP - Dew Point  RH - Relative Humidity
WIND - Wind Direction/Speed PRES - Barometric Pressure